DateTimeUTC,F1_A11,F1_S11,BsB_S11,BsG_S11,BsR_S11,BbsB_S11,BbsG_S11,BbsR_S11,BaB_A11,BaG_A11,BaR_A11,Tu_S11,T_S11,Uu_S11,U_S11,P_S11,T1_A11
2021-08-14T00:00:00Z,00000200,20000000,,,,,,,0000.04,-000.20,0000.01,18.4,24.9,13.2,08.9,0674.4,30.9
2021-08-14T00:01:00Z,00000200,20000000,,,,,,,0000.01,-000.25,0000.09,18.4,24.9,13.2,08.9,0674.4,30.9
2021-08-14T00:02:00Z,00000200,20000000,,,,,,,0000.23,0000.48,-000.02,18.4,24.9,13.2,08.9,0674.4,30.9
2021-08-14T00:03:00Z,00000200,60000000,,,,,,,0011.08,0010.25,0008.72,18.4,24.9,13.2,08.9,0674.4,30.9
2021-08-14T00:04:00Z,00000200,40000000,0063.28,0055.05,0040.37,0006.93,0006.00,0004.53,0015.23,0013.72,0010.71,18.5,24.7,13.2,09.0,0675.4,30.9
2021-08-14T00:05:00Z,00000200,00000000,0062.78,0054.48,0040.11,0007.13,0005.73,0004.67,0014.37,0013.92,0011.83,18.5,24.7,13.2,09.1,0675.4,30.9
2021-08-14T00:06:00Z,00000200,00000000,0063.04,0053.60,0039.39,0006.59,0005.94,0004.33,0014.99,0013.99,0011.14,18.5,24.7,13.3,09.1,0675.5,30.9
2021-08-14T00:07:00Z,00000200,00000000,0060.83,0054.11,0039.08,0007.53,0005.71,0004.50,0014.75,0013.72,0010.98,18.5,24.6,13.4,09.2,0675.5,30.9
2021-08-14T00:08:00Z,00000200,00000000,0062.13,0053.62,0039.35,0007.25,0005.74,0004.31,0014.40,0013.09,0011.04,18.5,24.6,13.4,09.2,0675.5,30.9
2021-08-14T00:09:00Z,00000200,00000000,0061.07,0052.86,0038.96,0006.60,0005.82,0004.43,0013.98,0013.23,0010.73,18.5,24.6,13.4,09.2,0675.5,30.9
2021-08-14T00:10:00Z,00000200,00000000,0061.32,0052.79,0037.81,0006.65,0005.88,0004.34,0014.26,0013.74,0011.32,18.5,24.6,13.5,09.3,0675.5,30.9
2021-08-14T00:11:00Z,00000200,00000000,0059.89,0052.33,0038.53,0007.71,0005.65,0004.72,0014.36,0013.22,0010.81,18.5,24.6,13.4,09.3,0675.5,30.9
2021-08-14T00:12:00Z,00000200,00000000,0061.05,0051.22,0039.18,0006.24,0005.52,0004.31,0014.15,0013.22,0010.73,18.4,24.6,13.4,09.2,0675.5,30.9
2021-08-14T00:13:00Z,00000200,00000000,0060.92,0052.54,0038.35,0006.69,0005.63,0004.09,0013.99,0013.28,0010.77,18.5,24.6,13.4,09.3,0675.5,30.9
2021-08-14T00:14:00Z,00000200,00000000,0060.35,0050.73,0037.49,0006.78,0005.10,0004.51,0013.97,0012.58,0010.71,18.7,24.7,13.4,09.3,0675.5,30.9
2021-08-14T00:15:00Z,00000200,00000000,0058.70,0051.66,0037.21,0006.77,0005.60,0004.49,0013.66,0012.77,0010.20,18.7,24.7,13.4,09.3,0675.6,30.9
2021-08-14T00:16:00Z,00000200,00000000,0057.78,0050.18,0037.14,0005.84,0005.55,0003.87,0013.68,0012.61,0010.89,18.8,24.8,13.4,09.3,0675.6,30.9
2021-08-14T00:17:00Z,00000200,00000000,0058.05,0050.77,0036.73,0007.38,0005.56,0004.13,0013.61,0013.18,0010.20,18.8,24.8,13.3,09.2,0675.6,30.9
2021-08-14T00:18:00Z,00000200,00000000,0056.73,0049.99,0036.81,0006.64,0005.35,0004.30,0013.66,0012.61,0009.90,18.8,24.8,13.4,09.3,0675.6,30.9
2021-08-14T00:19:00Z,00000200,00000000,0057.84,0049.01,0035.88,0006.49,0005.04,0004.09,0013.50,0012.78,0010.52,18.8,24.8,13.4,09.3,0675.6,30.9
2021-08-14T00:20:00Z,00000200,00000000,0056.21,0049.08,0035.98,0006.64,0005.33,0004.28,0013.22,0012.15,0010.27,18.8,24.8,13.3,09.2,0675.6,30.9
2021-08-14T00:21:00Z,00000200,00000000,0058.16,0048.85,0035.56,0006.37,0005.38,0004.11,0013.32,0012.95,0010.07,18.7,24.8,13.4,09.3,0675.6,30.9
2021-08-14T00:22:00Z,00000200,00000000,0056.63,0048.57,0035.55,0006.37,0005.20,0004.16,0013.06,0012.08,0010.01,18.7,24.7,13.4,09.3,0675.5,30.9
2021-08-14T00:23:00Z,00000200,00000000,0055.61,0047.96,0035.32,0006.14,0005.13,0004.13,0013.30,0012.27,0010.21,18.7,24.7,13.5,09.3,0675.5,30.9
2021-08-14T00:24:00Z,00000200,00000000,0056.15,0046.65,0034.32,0006.96,0004.88,0003.64,0012.68,0012.01,0009.60,18.7,24.7,13.5,09.3,0675.5,30.9
2021-08-14T00:25:00Z,00000200,00000000,0054.86,0048.09,0034.81,0005.98,0004.92,0004.27,0012.93,0011.86,0009.68,18.7,24.7,13.5,09.4,0675.5,30.9
2021-08-14T00:26:00Z,00000200,00000000,0055.00,0047.28,0034.30,0005.85,0004.87,0004.01,0013.21,0011.99,0010.19,18.7,24.7,13.5,09.3,0675.5,30.9
2021-08-14T00:27:00Z,00000200,00000000,0054.04,0046.68,0034.92,0006.44,0005.00,0004.35,0012.51,0012.07,0009.68,18.7,24.7,13.6,09.4,0675.6,30.9
2021-08-14T00:28:00Z,00000200,00000000,0053.87,0046.37,0034.33,0005.54,0005.03,0003.77,0012.72,0011.67,0009.78,18.7,24.7,13.6,09.4,0675.6,30.9
2021-08-14T00:29:00Z,00000200,00000000,0055.05,0046.69,0034.07,0006.65,0005.40,0004.10,0012.28,0011.63,0009.18,18.7,24.8,13.6,09.4,0675.5,30.9
2021-08-14T00:30:00Z,00000200,00000000,0054.04,0045.68,0034.05,0006.42,0004.81,0004.24,0013.32,0012.39,0010.03,18.7,24.7,13.7,09.5,0675.6,30.9
2021-08-14T00:31:00Z,00000200,00000000,0054.39,0045.09,0033.04,0005.95,0005.00,0003.82,0011.81,0011.18,0008.99,18.8,24.8,13.7,09.5,0675.5,30.9
2021-08-14T00:32:00Z,00000200,00000000,0051.52,0045.91,0033.37,0006.21,0004.76,0003.88,0012.07,0011.35,0009.22,18.8,24.8,13.6,09.4,0675.5,30.9
2021-08-14T00:33:00Z,00000200,00000000,0052.48,0044.95,0032.19,0005.89,0004.94,0003.56,0012.03,0011.27,0009.39,18.8,24.8,13.6,09.4,0675.5,30.9
2021-08-14T00:34:00Z,00000200,00000000,0053.58,0045.75,0032.86,0005.89,0005.00,0003.68,0011.99,0011.27,0009.07,18.8,24.8,13.7,09.5,0675.5,30.9
2021-08-14T00:35:00Z,00000200,00000000,0051.25,0043.94,0032.32,0005.78,0004.66,0003.84,0012.16,0011.18,0009.20,18.7,24.7,13.5,09.4,0675.5,30.9
2021-08-14T00:36:00Z,00000200,00000000,0051.46,0043.68,0032.42,0006.36,0004.57,0003.52,0011.92,0011.29,0009.08,18.7,24.7,13.6,09.5,0675.5,30.9
2021-08-14T00:37:00Z,00000200,00000000,0050.34,0043.48,0031.18,0005.78,0005.12,0003.64,0011.93,0011.32,0009.16,18.7,24.7,13.7,09.5,0675.5,30.9
2021-08-14T00:38:00Z,00000200,00000000,0049.44,0041.85,0031.28,0005.19,0004.47,0003.65,0011.52,0010.53,0008.91,18.7,24.7,13.7,09.5,0675.5,30.9
2021-08-14T00:39:00Z,00000200,00000000,0049.22,0042.27,0030.72,0005.50,0004.71,0003.71,0011.35,0010.99,0008.52,18.7,24.7,13.8,09.6,0675.5,30.9
2021-08-14T00:40:00Z,00000200,00000000,0047.62,0042.00,0030.17,0005.34,0004.98,0003.51,0011.58,0010.13,0008.62,18.7,24.7,13.9,09.6,0675.5,30.9
2021-08-14T00:41:00Z,00000200,00000000,0047.48,0040.84,0029.81,0006.01,0004.42,0003.56,0010.97,0010.75,0008.69,18.7,24.7,13.8,09.6,0675.5,30.9
2021-08-14T00:42:00Z,00000200,00000000,0048.90,0040.80,0029.76,0005.21,0004.40,0003.73,0011.36,0010.68,0008.63,18.6,24.7,13.9,09.7,0675.5,30.9
2021-08-14T00:43:00Z,00000200,00000000,0048.07,0040.63,0029.49,0005.95,0004.94,0003.32,0010.87,0009.81,0007.77,18.6,24.7,14.0,09.7,0675.5,30.9
2021-08-14T00:44:00Z,00000200,00000000,0047.81,0039.63,0029.54,0006.30,0004.28,0003.44,0010.49,0009.94,0008.68,18.6,24.6,14.0,09.7,0675.5,30.9
2021-08-14T00:45:00Z,00000200,00000000,0045.89,0039.69,0028.70,0005.63,0003.92,0003.35,0011.26,0010.49,0008.36,18.6,24.7,14.0,09.7,0675.5,30.9
2021-08-14T00:46:00Z,00000200,00000000,0047.28,0038.69,0028.46,0005.69,0004.58,0003.36,0010.76,0010.20,0008.00,18.6,24.7,14.0,09.7,0675.5,30.9
2021-08-14T00:47:00Z,00000200,00000000,0044.97,0038.53,0027.78,0005.18,0004.58,0003.14,0010.01,0009.40,0007.92,18.6,24.6,14.1,09.7,0675.5,30.9
2021-08-14T00:48:00Z,00000200,00000000,0045.19,0037.89,0027.99,0005.12,0004.25,0003.06,0010.55,0009.87,0007.76,18.6,24.6,14.2,09.8,0675.5,30.9
2021-08-14T00:49:00Z,00000200,00000000,0043.97,0037.85,0027.39,0004.86,0003.89,0003.07,0010.31,0009.46,0007.87,18.6,24.6,14.2,09.8,0675.4,30.9
2021-08-14T00:50:00Z,00000200,00000000,0044.38,0037.45,0027.49,0004.04,0004.22,0002.93,0010.83,0009.84,0007.86,18.6,24.6,14.2,09.8,0675.4,30.9
2021-08-14T00:51:00Z,00000200,00000000,0044.30,0037.30,0027.40,0004.84,0004.30,0003.19,0010.09,0009.31,0007.97,18.6,24.6,14.2,09.8,0675.4,30.9
2021-08-14T00:52:00Z,00000200,00000000,0043.15,0036.60,0026.64,0005.65,0004.20,0002.64,0009.54,0009.57,0007.59,18.6,24.6,14.2,09.8,0675.4,30.9
2021-08-14T00:53:00Z,00000200,00000000,0042.26,0036.54,0026.20,0005.10,0003.80,0002.69,0009.92,0008.93,0007.60,18.6,24.6,14.2,09.8,0675.4,30.9
2021-08-14T00:54:00Z,00000200,00000000,0041.45,0036.53,0025.92,0004.84,0003.89,0002.60,0010.18,0009.15,0007.09,18.6,24.6,14.2,09.9,0675.4,30.9
2021-08-14T00:55:00Z,00000200,00000000,0042.67,0036.04,0025.95,0004.43,0004.23,0002.81,0009.41,0009.11,0007.69,18.5,24.6,14.3,09.9,0675.4,30.9
2021-08-14T00:56:00Z,00000200,00000000,0042.44,0035.02,0026.16,0004.68,0003.87,0003.02,0009.95,0009.29,0007.52,18.5,24.6,14.3,09.9,0675.4,30.9
2021-08-14T00:57:00Z,00000200,40000000,,,,,,,0002.98,0002.69,0002.17,18.5,24.6,14.7,10.1,0675.5,30.9
2021-08-14T00:58:00Z,00000200,60000000,,,,,,,-000.02,0000.06,-000.16,18.4,24.7,14.2,09.6,0674.4,30.9
2021-08-14T00:59:00Z,00000200,20000000,,,,,,,-000.19,-000.21,-000.47,18.4,24.9,14.3,09.6,0674.4,30.9
